Regional Weather Roundup
Issued by NWS Charleston, SC

Current Version | Previous Version | Graphics & Text | Print | Product List | Glossary On
Versions: 1 2 3 4 5 6 7 8 9 10 11 12 13 14 15 16 17 18 19 20 21 22 23 24 25 26 27 28 29 30 31 32 33 34 35 36 37 38 39 40 41 42 43 44 45 46 47 48 49 50
000
ASUS42 KCHS 282112
RWRCHS

REGIONAL WEATHER ROUNDUP
NATIONAL WEATHER SERVICE CHARLESTON SC
500 PM EDT TUE JUL 28 2015

NOTE: "FAIR" INDICATES FEW OR NO CLOUDS BELOW 12,000 FEET WITH NO
SIGNIFICANT WEATHER AND/OR OBSTRUCTIONS TO VISIBILITY.

NOT ALL STATIONS ARE QUALITY CONTROLLED BY THE NATIONAL
WEATHER SERVICE. USE DATA WITH CAUTION...ESPECIALLY
DEWPOINT OBSERVATIONS.

SCZ027-030-031-034>040-042>050-282200-
...SOUTHEAST SOUTH CAROLINA...

CITY           SKY/WX    TMP DP  RH WIND       PRES   REMARKS
N CHARLESTON   PTSUNNY   88  68  51 E8        29.94S HX  91
WATERFRONT PRK   N/A     89  77  67 E12       29.93S HX 101
MOUNT PLEASANT LGT RAIN  90  70  51 NE3       29.94F HX  95
JOHNS ISLAND   FAIR      86  75  70 E12       29.95S HX  95
PINOPOLIS      NOT AVBL
MONCKS CORNER  FAIR      91  66  43 E3        29.94F HX  94
SUMMERVILLE    FAIR      91  70  49 CALM      29.95S HX  97
BEAUFORT MCAS  MOSUNNY   89  72  56 E10       29.94S HX  96
BEAUFORT ARPT  FAIR      88  72  58 SE7       29.93F HX  94
HILTON HEAD IS MOSUNNY   88  77  70 E7        29.95F HX 100
WALTERBORO     PTCLDY    97  64  34 NE6       29.94S HX  99
ALLENDALE      FAIR      88  77  70 CALM      29.93S HX 100

...SOUTHERN MIDLANDS AND PEE DEE...

CITY           SKY/WX    TMP DP  RH WIND       PRES   REMARKS
GEORGETOWN     NOT AVBL
KINGSTREE      NOT AVBL
ORANGEBURG     MOSUNNY   93  64  38 E6        29.94S HX  94
BARNWELL       RAIN      82  79  89 CALM      29.96F HX  93
AIKEN          MOCLDY    90  66  45 S10       29.99R HX  92
MANNING        FAIR      88  66  48 SW8       29.94S HX  90
COLUMBIA       PTSUNNY   91  69  48 SE9       29.94S HX  96
SUMTER         PTSUNNY   94  64  37 W10       29.93S HX  95
FLORENCE       SUNNY     93  65  39 E8        29.93F HX  95
MYRTLE BEACH   MOSUNNY   88  72  58 SE12      29.98F HX  94
N MYRTLE BEACH SUNNY     85  71  63 E9G17     29.96F HX  90

$$

GAZ063-065-086>088-099>101-113>116-118-119-134>141-150-282200-
...SOUTHEAST GEORGIA...

CITY           SKY/WX    TMP DP  RH WIND       PRES   REMARKS
SAVANNAH ARPT  PTSUNNY   90  73  57 SE9       29.92F HX  98
HUNTER AAF     SUNNY     89  75  62 E13       29.91F HX  99
FORT STEWART   SUNNY     92  71  49 SE10      29.90F HX  99
STATESBORO     PTSUNNY   94  75  53 E5        29.92F HX 105
SYLVANIA       MOCLDY    94  76  55 CALM      29.94S HX 106
CLAXTON        FAIR      93  73  52 E6        29.92S HX 102

...CSRA...CENTRAL AND FAR SOUTHEAST GEORGIA...

CITY           SKY/WX    TMP DP  RH WIND       PRES   REMARKS
THOMSON        PTSUNNY   98  73  44 S5        29.97S HX 108
AUGUSTA-BUSH   MOSUNNY   90  71  53 S12       29.93S HX  96
AUGUSTA-DANIEL PTSUNNY   91  70  49 S13       29.95S HX  96
SWAINSBORO     MOCLDY    97  73  46 NE3       29.94S HX 107
VIDALIA        RAIN      95  70  43 E10       29.93S HX 101
EASTMAN        FAIR      93  72  50 NE5       29.95F HX 101
HAZLEHURST     FAIR      92  75  57 E3        29.92F HX 104
ALMA           MOSUNNY   94  71  47 VRB5      29.92F HX 101
WAYCROSS       SUNNY     96  76  52 NE7       29.92S HX 109
JESUP          FAIR      97  75  49 E12       29.92S HX 109
BAXLEY         FAIR      95  70  43 E5        29.92S HX 101
BRUNSWICK      SUNNY     90  73  58 NE12G18   29.94S HX  98
SAINT SIMONS   MOSUNNY   86  76  71 E15       29.93F HX  96

$$

SCZ027-028-034-036>038-045-046-048>050-GAZ119-141-282200-
...LAKE AND SUPPLEMENTAL COASTAL OBSERVATIONS...

STATION/POSITION TIME  TEMP    WIND        PRES    WAVE   SWELL
                       AIR SEA DIR/SP/G            HT/PER HT/PER/DIR
                 (UTC) (F)     (DEG/KT/KT) (MB)    (FT/S) (FT/S/D)
UPR LAKE MARION  NOT AVBL
WINYAH BAY       1945   83      60/ 10     1014.0
LAKE MURRAY      2000   94     190/  4/  4 1012.9F
ACE BASIN NERRS  NOT AVBL
FORT PULASKI     2000   83 86   70/ 12/ 14 1014.6F
SAPELO ISLAND    2000   89      60/ 11     1013.0F

$$

ANZ835-935-AMZ111-154-330-350-352-354-370-450-454-472-282200-
...C-MAN AND BUOY OBSERVATIONS...

STATION/POSITION TIME  TEMP    WIND        PRES    WAVE   SWELL
                       AIR SEA DIR/SP/G            HT/PER HT/PER/DIR
                 (UTC) (F)     (DEG/KT/KT) (MB)    (FT/S) (FT/S/D)
BUOY 41004       2050   84 85   50/ 12/ 12 1013.4F   3/ 5   2/ 7
BUOY 41008       2050   82 82   50/ 12/ 14 1013.7F   2/ 4   2/130/ 6
FOLLY BEACH CMAN 2000   84      70/ 13/ 14 1014.6F
CAPERS NEARSHORE NOT AVBL
FRIPP NEARSHORE  NOT AVBL


STATION/POSITION TIME  TEMP    WIND        PRES    WAVE   SWELL
                       AIR SEA DIR/SP/G            HT/PER HT/PER/DIR
                 (UTC) (F)     (DEG/KT/KT) (MB)    (FT/S) (FT/S/D)
5E ST. MARYS GA  2021      82                N/A     2/11   2/110/11
FRYING PAN BUOY  1950   84 84   70/ 14/ 16 1014.7    5/ 6   3/130/ 6
BUOY 41025       NOT AVBL
CAPE LOOKOUT NC  2000   82      90/ 11/ 12 1015.1F
BUOY 41002       2050   81 82  220/ 21/ 25 1014.2F   8/ 7
BUOY 41010       2020   85 84  200/ 12/ 14 1014.7F
ST AUGUSTINE FL  2000   81 81   20/ 11/ 12 1014.1F


$$



USA.gov is the U.S. government's official web portal to all federal, state and local government web resources and services.